Regional Weather Roundup
Issued by NWS Charleston, SC

Current Version | Previous Version | Graphics & Text | Print | Product List | Glossary On
Versions: 1 2 3 4 5 6 7 8 9 10 11 12 13 14 15 16 17 18 19 20 21 22 23 24 25 26 27 28 29 30 31 32 33 34 35 36 37 38 39 40 41 42 43 44 45 46 47 48 49 50
000 ASUS42 KCHS 311311 RWRCHS REGIONAL WEATHER ROUNDUP NATIONAL WEATHER SERVICE CHARLESTON SC 800 AM EST SAT JAN 31 2015 NOTE: "FAIR" INDICATES FEW OR NO CLOUDS BELOW 12,000 FEET WITH NO SIGNIFICANT WEATHER AND/OR OBSTRUCTIONS TO VISIBILITY. NOT ALL STATIONS ARE QUALITY CONTROLLED BY THE NATIONAL WEATHER SERVICE. USE DATA WITH CAUTION...ESPECIALLY DEWPOINT OBSERVATIONS. SCZ027-030-031-034>040-042>050-311400- ...SOUTHEAST SOUTH CAROLINA... CITY SKY/WX TMP DP RH WIND PRES REMARKS N CHARLESTON PTCLDY 33 16 49 N5 30.37R WCI 29 WATERFRONT PRK N/A 37 N/A N/A NE12 N/A WCI 30 MOUNT PLEASANT FAIR 32 16 51 CALM 30.37R PINOPOLIS N/A 36 18 48 E8 30.26S WCI 29 MONCKS CORNER FAIR 32 18 55 CALM 30.37R SUMMERVILLE FAIR 28 25 86 CALM 30.38R BEAUFORT MCAS CLEAR 33 23 66 N6 30.37R WCI 28 BEAUFORT ARPT FAIR 37 25 60 NE15 30.36R WCI 28 HILTON HEAD IS CLEAR N/A N/A N/A N7 30.36S WALTERBORO SUNNY 28 N/A N/A CALM 30.39R ALLENDALE FAIR 30 21 69 CALM 30.36S ...SOUTHERN MIDLANDS AND PEE DEE... CITY SKY/WX TMP DP RH WIND PRES REMARKS GEORGETOWN NOT AVBL KINGSTREE NOT AVBL ORANGEBURG MIX PCPN 28 23 81 NE3 30.37R BARNWELL N/A 28 25 86 CALM 30.37S AIKEN FAIR 27 21 80 CALM 30.38S MANNING FAIR 27 21 80 CALM 30.38R COLUMBIA CLEAR 26 20 77 CALM 30.38R SUMTER CLEAR 28 15 58 W6 30.37R WCI 22 FLORENCE CLEAR 25 15 66 W5 30.37R WCI 19 MYRTLE BEACH CLEAR 28 16 59 N6 30.38R WCI 22 N MYRTLE BEACH CLEAR 30 15 53 N6 30.36R WCI 24 $$ GAZ063-065-086>088-099>101-113>116-118-119-134>141-150-311400- ...SOUTHEAST GEORGIA... CITY SKY/WX TMP DP RH WIND PRES REMARKS SAVANNAH ARPT CLEAR 31 26 82 N3 30.37R HUNTER AAF CLEAR 35 26 70 N3 30.34R FORT STEWART CLEAR 31 26 81 N3 30.34R STATESBORO CLEAR 27 27 100 CALM 30.36S SYLVANIA SUNNY 29 28 96 CALM 30.37R CLAXTON FAIR 28 28 100 CALM 30.36S ...CSRA...CENTRAL AND FAR SOUTHEAST GEORGIA... CITY SKY/WX TMP DP RH WIND PRES REMARKS THOMSON CLEAR 25 25 100 CALM 30.41R AUGUSTA-BUSH CLEAR 23 20 88 CALM 30.38R AUGUSTA-DANIEL CLEAR 33 20 58 N3 30.36R SWAINSBORO FAIR 36 14 41 NE3 30.36S VIDALIA CLEAR 32 27 80 CALM 30.35R EASTMAN FAIR 28 28 100 CALM 30.40R HAZLEHURST FAIR 33 28 81 CALM 30.35R ALMA CLEAR 34 24 67 CALM 30.34S WAYCROSS CLEAR 38 31 77 CALM 30.34S JESUP FAIR 37 32 81 CALM 30.35F BAXLEY FAIR 34 30 86 CALM 30.35R BRUNSWICK CLEAR 37 32 81 N3 30.36R SAINT SIMONS CLEAR 40 36 86 N5 30.34R WCI 37 $$ SCZ027-028-034-036>038-045-046-048>050-GAZ119-141-311400- ...LAKE AND SUPPLEMENTAL COASTAL OBSERVATIONS... STATION/POSITION TIME TEMP WIND PRES WAVE SWELL AIR SEA DIR/SP/G HT/PER HT/PER/DIR (UTC) (F) (DEG/KT/KT) (MB) (FT/S) (FT/S/D) UPR LAKE MARION NOT AVBL WINYAH BAY NOT AVBL LAKE MURRAY 1200 32 300/ 2/ 3 1027.4R ACE BASIN NERRS NOT AVBL FORT PULASKI 1200 41 52 20/ 11/ 15 1027.9R SAPELO ISLAND 1200 41 30/ 5 1027.0R $$ ANZ835-935-AMZ111-154-330-350-352-354-370-450-454-472-311400- ...C-MAN AND BUOY OBSERVATIONS... STATION/POSITION TIME TEMP WIND PRES WAVE SWELL AIR SEA DIR/SP/G HT/PER HT/PER/DIR (UTC) (F) (DEG/KT/KT) (MB) (FT/S) (FT/S/D) BUOY 41004 1250 45 68 10/ 19/ 23 1026.5R 6/ 6 2/11 BUOY 41008 1250 48 54 40/ 17/ 21 1026.8R 5/ 6 FOLLY BEACH CMAN 1300 39 20/ 14/ 18 1028.6R CAPERS NEARSHORE 1200 39 30/ 19/ 23 N/A FRIPP NEARSHORE 1200 43 40/ 16/ 17 1026.0R STATION/POSITION TIME TEMP WIND PRES WAVE SWELL AIR SEA DIR/SP/G HT/PER HT/PER/DIR (UTC) (F) (DEG/KT/KT) (MB) (FT/S) (FT/S/D) 5E ST. MARYS GA 1221 56 N/A 4/ 6 FRYING PAN BUOY 1250 39 61 360/ 19/ 23 1027.4R 6/ 6 2/ 90/ 9 BUOY 41025 1250 34 62 330/ 29/ 33 1024.0R 7/ 5 3/ 20/ 9 CAPE LOOKOUT NC 1200 31 340/ 18/ 22 1025.9R BUOY 41002 1250 53 70 330/ 21/ 29 1023.0R 13/ 9 BUOY 41010 1220 62 73 20/ 17/ 21 1023.6R ST AUGUSTINE FL 1300 56 30/ 17/ 19 1026.1R $$

USA.gov is the U.S. government's official web portal to all federal, state and local government web resources and services.